Wind_Speed
23 24 24 24 26 32 40 45 40 36 40 42 40 39 41 42 42 40 36 34 34 34 34 33 32 32 29 26 26 27 25 22 22 22 23 24 25 26 26 26 25 25 25 26 26 25 25 25 24 24 24 23 22 22 20 17 17 19 21 22 23 24 27 29 30 30 31 29 26 24 24 25 26 25 24 23 23 22 22 22 22 21 20 20 19 17 16
28 26 25 25 25 27 35 42 42 41 43 43 40 38 42 45 45 43 41 38 38 39 38 36 34 31 28 24 24 27 27 25 23 24 24 24 26 27 27 28 28 28 28 28 28 28 27 27 27 26 26 25 24 24 21 18 17 17 17 18 19 22 27 29 30 30 30 30 29 27 26 27 26 25 24 22 21 21 22 21 21 21 20 19 19 18 17
34 34 31 28 26 26 31 39 43 45 44 43 41 39 42 46 47 47 46 45 43 42 42 41 38 34 30 26 23 24 25 25 24 24 25 25 26 28 29 30 30 30 30 30 31 30 29 29 28 28 28 27 27 26 24 21 19 17 17 16 16 19 26 29 28 28 29 29 29 29 29 28 27 25 24 22 21 21 22 21 21 21 21 20 20 19 19
33 35 32 30 29 28 29 33 37 41 42 43 43 43 44 46 46 47 49 49 48 46 44 44 42 38 34 32 29 25 23 22 22 24 25 24 25 28 29 31 32 32 32 32 33 33 32 32 31 30 30 30 29 27 26 23 20 17 17 18 18 18 23 28 28 28 29 29 28 29 29 29 28 27 27 26 24 23 22 22 21 21 22 23 23 22 20
32 31 29 30 30 28 27 29 31 33 35 39 43 45 46 47 46 46 48 48 48 49 48 47 45 41 36 33 32 30 28 24 21 23 26 26 25 26 28 30 32 33 33 34 34 35 36 35 34 34 33 32 31 30 28 26 23 19 18 19 20 20 21 26 28 28 28 28 28 28 28 28 28 29 29 29 27 24 23 23 23 22 24 25 25 24 23
32 28 26 28 30 31 30 30 30 28 29 32 37 40 44 47 48 47 47 47 47 48 48 48 47 45 42 38 34 32 32 31 27 26 27 29 29 28 28 30 31 32 34 34 35 36 37 38 37 37 36 36 35 33 31 29 27 24 21 21 21 21 22 24 27 28 29 29 28 28 28 28 29 31 31 31 30 28 25 25 26 25 25 26 26 26 25
28 26 24 26 29 32 34 34 33 32 30 30 31 31 36 44 50 49 47 46 47 47 47 48 48 48 47 45 41 36 35 34 32 29 29 31 31 31 30 30 31 33 34 35 35 36 37 38 39 39 39 38 38 37 35 33 31 29 26 25 24 23 23 24 25 27 28 30 30 29 29 30 31 34 34 32 32 32 30 28 29 28 27 27 28 27 27
25 26 29 29 29 31 34 35 35 36 34 32 31 30 33 41 48 50 49 49 49 49 49 48 48 48 47 46 44 41 39 38 36 33 32 32 33 32 32 32 33 34 35 36 36 36 37 37 38 39 40 40 40 39 38 37 35 33 31 29 28 27 26 26 26 27 27 29 30 31 31 30 30 32 33 31 31 32 32 31 31 30 30 29 30 29 29
25 28 31 31 29 30 31 30 31 33 33 33 34 33 33 36 39 42 44 46 48 48 48 47 46 48 47 45 43 41 39 40 40 37 35 36 36 35 34 33 33 35 36 37 38 38 38 38 38 39 39 40 40 41 41 40 39 37 35 34 32 31 29 28 28 28 28 28 29 30 31 29 28 29 30 29 31 33 33 33 32 31 31 32 32 31 31
25 28 30 30 29 27 28 29 29 30 33 34 34 33 31 32 34 34 34 36 40 42 44 44 44 45 46 45 44 42 39 40 41 39 36 35 37 37 35 34 35 36 37 38 39 39 39 40 39 39 40 40 40 41 41 42 42 41 40 38 36 35 33 32 31 30 30 30 30 30 30 29 28 29 29 29 31 34 34 33 33 32 34 36 36 34 32
24 28 30 31 28 26 28 32 31 30 30 29 29 30 30 32 35 35 34 35 38 41 42 42 43 44 45 45 46 45 44 42 42 40 37 35 36 38 38 37 38 39 38 38 39 40 41 42 41 40 40 40 41 41 41 42 42 43 42 41 40 39 38 36 34 33 32 31 31 31 31 29 29 30 30 29 31 33 34 33 33 34 35 37 38 36 35
23 27 30 31 30 28 29 31 30 28 27 27 26 28 31 33 36 37 36 36 38 41 41 42 43 44 45 47 48 47 46 43 42 41 40 38 37 38 38 39 40 40 39 39 40 40 42 43 43 42 41 40 41 42 42 42 43 43 44 44 43 43 42 41 40 38 36 34 33 33 32 31 30 30 30 30 31 33 33 32 32 34 35 36 36 37 37
22 26 29 31 33 32 32 32 30 28 28 29 28 29 31 33 36 37 37 37 39 41 41 41 42 43 46 49 50 49 48 45 43 41 41 41 41 40 41 43 43 42 42 43 42 42 42 43 44 43 43 42 43 43 44 44 43 43 44 45 45 45 44 44 44 43 41 38 37 35 34 33 31 31 30 30 31 32 34 34 34 33 34 34 35 35 37
24 26 28 31 33 33 32 32 32 31 30 30 29 29 30 33 36 39 39 38 39 39 39 38 39 42 46 48 48 49 49 48 46 44 43 43 43 44 46 47 46 45 46 46 46 46 45 45 46 46 45 45 45 46 46 46 45 44 44 45 46 46 46 46 46 46 45 43 41 39 38 37 35 33 32 32 31 32 33 36 36 35 35 35 34 35 36
24 27 29 31 32 33 32 32 32 32 31 31 30 29 29 30 33 35 35 35 35 35 35 36 38 42 45 46 46 48 49 50 49 48 47 47 47 47 47 47 47 47 47 48 48 48 48 49 49 49 49 48 47 47 48 48 47 46 46 46 47 48 48 47 47 48 48 47 45 43 42 42 40 37 35 34 33 33 33 35 36 36 36 34 33 33 34
20 23 27 30 32 33 34 34 34 34 33 33 32 31 30 30 31 32 32 32 33 33 33 34 37 40 42 43 44 46 48 50 50 49 48 49 49 49 48 48 48 49 49 49 49 49 49 49 50 51 50 50 50 50 50 49 49 49 49 48 49 49 49 48 49 49 49 49 48 47 46 45 45 43 41 39 37 36 35 35 35 35 35 34 32 31 32
19 20 21 23 24 27 29 31 33 35 35 35 34 34 34 33 33 34 34 33 33 33 33 33 35 38 41 42 43 43 44 47 49 49 48 48 48 49 50 50 51 51 51 52 52 52 52 52 52 52 51 51 51 52 52 52 52 51 51 51 51 51 50 50 50 50 51 51 51 50 49 48 47 47 46 45 44 41 40 39 37 36 36 36 35 33 33
22 23 23 22 22 24 25 26 28 29 30 31 33 35 37 37 37 38 38 36 35 33 33 34 35 37 40 42 42 41 41 43 45 46 47 47 47 47 48 49 50 51 52 53 54 54 54 54 54 54 54 53 53 53 53 53 53 53 53 53 53 53 53 52 52 51 52 52 52 52 51 50 49 49 49 49 48 47 46 45 44 42 39 38 37 36 35
22 24 25 26 26 27 27 26 26 26 26 27 29 32 33 36 38 40 40 39 38 36 36 38 38 38 39 41 42 41 40 41 43 44 45 45 45 45 46 47 48 49 50 51 52 53 54 54 54 54 54 54 54 54 54 54 54 54 54 54 54 55 55 54 54 54 53 53 54 53 53 51 51 51 52 52 51 51 51 50 50 49 47 44 42 40 39
24 25 27 28 28 30 30 30 30 29 27 27 28 28 29 31 33 35 37 39 39 39 40 40 40 40 41 42 42 41 41 41 42 43 44 45 45 45 45 45 45 46 48 49 50 51 51 52 53 53 53 52 53 53 53 53 53 53 53 54 54 55 55 55 55 55 55 55 55 55 54 53 53 52 52 53 53 54 54 54 54 54 53 51 49 46 44
25 27 29 29 30 31 33 33 34 34 32 31 30 29 30 30 30 31 33 35 36 37 38 38 39 40 41 42 42 43 42 41 42 43 44 45 46 45 45 44 44 44 45 46 48 49 50 50 51 51 51 51 50 51 51 51 51 51 52 53 53 54 55 56 56 56 56 56 56 56 55 55 55 54 54 54 54 54 55 56 57 58 58 57 55 53 50
26 27 29 30 31 32 32 33 34 36 36 35 34 33 33 33 34 33 33 33 33 34 34 34 35 37 39 40 41 42 43 43 43 43 44 45 46 46 46 45 44 44 44 44 45 47 48 49 50 50 50 50 50 50 49 49 50 50 51 51 52 53 54 55 55 55 55 55 55 55 56 56 56 56 56 56 55 55 55 56 57 58 60 61 60 58 56
30 30 31 32 33 34 34 34 34 34 36 36 36 37 37 37 37 37 37 36 35 34 34 33 33 34 35 37 38 40 41 42 42 43 45 46 47 48 48 47 47 46 45 45 45 45 47 48 49 50 50 50 50 51 50 50 50 50 50 51 52 53 54 54 55 55 55 54 54 54 55 55 56 56 57 57 56 56 55 56 57 58 58 60 62 62 60
33 33 33 33 34 35 36 36 36 36 36 36 36 38 39 38 38 39 40 40 39 38 37 36 35 35 35 35 36 37 38 39 40 41 42 44 46 48 49 49 49 48 47 47 48 47 47 48 49 50 51 51 51 52 52 52 52 52 52 52 53 53 54 55 55 56 55 54 54 54 54 55 56 56 57 57 56 55 56 57 58 59 59 60 61 62 61
34 34 34 34 35 36 37 38 39 39 38 37 38 38 40 40 40 39 40 42 42 42 41 40 40 39 38 37 37 36 36 36 37 38 39 41 42 44 45 46 47 47 47 47 47 48 48 48 48 49 51 52 53 53 53 53 54 54 54 54 54 55 56 57 57 58 57 57 56 56 56 56 56 56 56 56 56 55 56 57 58 59 60 61 61 61 61
36 36 37 37 37 38 39 40 42 42 41 41 40 40 40 42 42 41 41 42 42 43 43 43 43 42 42 41 40 39 38 38 38 38 39 40 41 41 41 42 42 43 43 43 43 43 44 44 44 45 47 49 50 51 52 53 53 54 54 54 55 55 56 57 58 59 60 59 59 58 58 57 57 57 57 56 57 57 58 59 59 59 60 61 62 62 61
39 39 40 40 41 41 42 43 44 44 44 43 42 41 42 42 43 44 43 43 43 43 43 43 43 44 44 44 43 43 42 41 40 40 40 41 41 41 40 40 41 41 41 41 40 40 40 40 40 41 41 42 44 46 48 49 50 50 51 52 52 53 54 55 56 58 59 60 60 60 60 59 59 59 59 59 59 59 59 60 60 60 60 61 61 62 62
42 42 42 43 44 44 44 44 44 45 45 45 45 45 44 44 45 46 46 46 46 46 45 44 44 44 44 44 45 45 46 45 44 43 42 42 43 43 42 42 42 42 42 41 41 40 40 39 39 39 39 39 40 41 42 44 45 46 47 48 49 50 51 52 53 55 56 58 59 60 60 60 60 60 60 60 60 60 60 61 61 62 62 62 62 62 62
44 44 45 45 45 45 45 45 45 45 46 46 47 48 48 48 47 48 48 48 48 48 49 48 46 45 45 44 44 45 47 47 46 45 45 45 45 45 45 44 44 44 44 43 43 42 42 41 41 41 41 41 41 42 43 43 44 44 45 46 47 48 49 50 51 53 54 55 56 58 59 59 60 60 61 61 61 61 61 62 62 63 63 64 64 64 64
42 43 42 43 44 44 44 45 45 45 46 46 47 48 49 50 49 49 50 49 49 49 50 50 49 48 46 45 44 44 45 47 48 48 47 47 47 47 47 46 46 46 46 46 45 45 44 44 43 43 43 44 44 45 46 46 46 45 45 46 46 47 48 49 50 52 53 55 56 57 58 59 60 60 61 61 62 63 63 63 63 64 64 65 65 66 66
38 38 39 40 41 42 43 43 44 44 45 46 47 48 49 50 50 50 51 51 50 50 51 51 51 50 49 48 47 45 43 44 47 49 49 49 48 48 48 48 48 48 48 47 47 46 46 46 46 46 46 46 47 47 47 47 47 46 46 46 47 48 49 50 51 51 53 54 55 57 58 59 60 60 61 62 63 63 64 64 65 65 65 65 65 66 67
34 35 35 36 37 38 40 40 41 42 42 43 44 45 45 46 47 48 48 48 49 49 49 50 51 50 49 49 50 48 46 45 46 48 50 50 49 49 48 49 49 49 49 49 49 48 47 47 47 47 47 48 49 50 50 50 49 48 48 48 49 50 51 51 51 51 52 53 54 56 57 58 59 61 62 62 63 64 64 65 65 66 67 67 66 67 67
34 35 35 36 36 37 38 39 40 40 41 41 41 42 42 42 43 43 44 44 45 45 46 46 46 46 46 47 48 48 47 46 47 48 49 50 49 49 48 48 49 49 49 49 49 49 48 49 49 49 49 49 50 51 52 52 52 52 52 52 53 53 53 53 53 53 54 55 56 57 58 59 60 61 62 63 64 65 65 66 66 67 68 68 68 68 68
36 36 36 37 37 38 39 40 40 40 40 40 40 41 41 40 40 41 41 41 41 42 43 43 43 43 44 46 47 46 45 44 44 45 46 48 48 48 48 48 48 48 48 48 48 48 49 50 50 51 51 51 52 52 53 53 54 55 55 55 55 55 55 56 56 56 57 57 58 59 60 60 61 62 63 64 65 66 66 67 68 69 69 69 68 68 69
34 35 36 37 38 39 40 40 41 41 41 41 40 40 40 39 39 39 40 40 40 40 40 40 40 40 41 43 45 44 43 42 42 43 44 45 46 47 48 48 48 49 49 49 48 48 49 49 49 50 50 51 52 52 53 53 53 54 55 55 55 56 57 57 58 58 59 59 60 61 61 62 62 63 64 65 66 67 68 69 69 70 70 70 69 69 70
33 34 35 36 37 39 41 41 42 42 42 41 41 41 40 39 39 39 39 39 40 40 39 38 38 37 38 40 42 42 41 39 39 40 41 43 45 47 47 48 48 49 49 50 50 50 50 50 50 49 49 49 50 50 51 51 52 52 53 53 54 55 56 57 58 58 59 60 60 61 62 63 64 64 65 66 67 68 69 70 70 71 71 71 70 70 70
43 42 41 41 41 41 42 43 44 44 43 43 42 41 40 39 39 39 39 39 40 40 40 39 38 38 37 38 39 41 40 38 37 38 40 42 43 44 45 45 45 46 47 48 49 49 50 50 50 49 49 49 48 48 49 49 50 50 51 51 52 53 54 56 57 57 58 59 59 60 61 63 64 65 65 67 68 69 69 69 70 70 70 70 71 71 71
45 45 46 46 46 45 45 46 46 45 44 43 43 43 42 40 39 39 39 39 39 39 39 39 40 40 39 37 37 39 40 39 37 37 38 40 41 41 42 43 43 44 45 46 46 46 46 47 47 48 48 48 48 48 48 48 48 48 49 49 51 52 53 55 56 56 57 58 58 59 60 61 62 64 65 66 68 68 67 67 68 68 69 69 70 71 71
39 40 41 42 43 44 45 46 48 48 47 45 44 43 42 41 41 40 40 39 39 39 38 38 39 39 39 39 38 38 38 37 37 36 37 39 39 39 40 41 42 43 44 44 44 43 43 44 44 44 45 45 46 46 46 47 47 47 48 49 50 51 53 54 55 56 56 57 57 58 59 60 61 62 64 65 66 66 65 65 65 66 66 67 67 68 69
35 36 37 37 38 39 41 44 46 48 49 49 48 45 43 43 43 41 39 39 39 39 38 37 37 38 39 39 40 38 36 35 36 37 38 38 38 37 37 37 39 40 40 39 38 38 38 38 39 39 40 41 42 43 44 45 46 47 47 49 50 51 52 53 54 55 56 56 57 58 58 59 61 62 63 64 64 63 63 63 63 63 63 63 64 65 66
32 33 33 32 33 34 35 38 41 44 47 49 51 50 48 47 45 43 41 39 39 39 38 36 35 36 38 40 41 39 36 35 37 40 40 39 37 35 34 33 33 34 34 32 32 32 32 33 34 35 36 38 39 41 42 44 45 46 47 48 49 50 52 53 54 55 56 57 58 58 59 61 62 63 63 62 61 60 60 60 60 59 59 59 60 61 62
29 30 31 31 31 31 32 33 35 37 40 43 46 49 50 49 47 46 45 42 40 39 37 36 35 36 38 39 38 36 35 37 40 40 39 36 34 32 31 31 31 31 30 30 30 30 31 32 33 34 35 37 39 40 42 43 44 45 46 47 48 49 50 52 54 55 56 58 59 60 62 63 62 61 60 58 57 56 56 56 56 55 55 55 55 56 57
27 26 28 29 31 32 33 33 32 32 33 34 37 41 45 45 44 44 45 44 41 39 37 35 35 35 35 34 32 31 31 33 35 34 33 32 31 31 30 30 30 30 30 30 30 31 31 32 34 34 35 37 39 40 41 42 42 43 43 44 45 47 49 51 53 55 57 59 61 62 61 60 58 56 55 54 52 52 53 53 52 52 52 52 52 52 52
26 26 28 30 31 32 34 35 34 32 30 28 29 33 36 39 40 42 42 42 41 39 36 35 34 33 31 30 29 28 26 27 29 29 29 29 29 28 28 29 29 28 28 28 29 29 30 31 32 33 34 35 36 36 36 37 37 38 40 42 44 46 49 51 54 57 59 60 60 58 56 53 52 50 50 49 49 50 50 50 50 50 49 49 49 50 50
26 28 29 30 30 30 30 31 31 30 28 26 26 27 29 31 34 36 35 36 37 38 36 33 31 30 30 31 30 28 27 27 27 27 26 26 26 26 26 26 26 26 26 26 27 28 29 30 30 31 31 32 32 32 33 34 35 37 39 41 44 46 49 51 54 56 56 55 53 51 49 47 46 46 46 46 47 48 49 49 49 48 48 48 48 49 49
25 24 24 25 26 25 22 21 23 25 24 23 21 20 19 19 23 25 25 27 32 36 36 33 30 29 28 28 26 24 23 23 24 23 23 23 24 24 23 23 23 24 25 26 27 28 29 29 29 29 29 30 30 32 33 34 36 37 38 40 42 45 47 49 50 50 49 48 47 45 44 43 42 42 42 43 44 45 46 46 46 45 45 45 46 46 47
20 18 18 20 20 17 14 15 16 18 19 20 21 22 20 20 22 24 23 24 28 32 34 34 33 31 28 25 22 20 19 18 19 19 20 21 21 22 22 22 22 23 25 26 27 28 28 28 28 28 28 29 31 32 33 34 35 35 37 39 41 43 44 45 45 45 44 44 43 42 41 40 40 40 40 40 41 42 42 43 43 42 42 42 43 43 44
19 16 15 15 11 3 8 11 13 14 15 16 18 20 19 18 20 22 23 23 25 28 31 32 33 33 31 29 26 24 22 21 21 21 22 23 23 24 24 24 25 26 26 28 28 29 30 30 29 28 28 30 31 31 32 32 32 33 35 37 39 41 42 42 43 42 42 41 41 41 40 39 39 40 40 39 39 39 39 40 40 40 40 41 41 42 42
20 16 12 9 8 6 8 10 11 15 17 17 17 17 16 13 13 15 17 18 20 23 26 29 31 32 32 32 31 29 28 27 26 25 24 25 25 26 26 27 28 28 29 30 31 31 32 31 30 29 29 30 30 30 30 29 30 31 34 36 38 40 41 42 41 41 40 40 39 39 39 39 39 40 40 39 37 36 36 36 37 37 38 39 39 40 41
19 16 11 8 7 7 10 12 15 17 19 19 18 16 14 11 10 10 12 13 14 16 19 22 24 26 27 28 27 26 25 25 25 25 24 24 25 26 27 28 29 30 31 32 33 33 33 32 31 30 30 30 30 29 29 29 30 32 33 35 37 39 41 42 42 40 39 39 38 38 38 38 39 40 40 38 37 36 35 35 35 35 36 37 38 38 39
19 17 16 13 12 14 16 17 18 18 17 16 15 13 12 11 11 10 10 11 11 12 14 16 18 20 22 22 22 22 23 23 24 25 25 25 25 26 28 29 30 31 32 33 34 35 34 34 33 33 33 33 32 31 31 31 32 33 34 36 38 39 40 42 43 41 39 38 37 37 36 37 38 39 39 38 37 37 36 35 35 35 36 36 37 38 38
15 15 16 15 16 17 16 15 14 14 15 15 15 14 13 12 11 9 9 10 10 11 12 13 15 17 18 19 20 21 22 23 23 24 25 26 26 27 28 29 30 31 33 34 34 35 35 36 36 36 36 35 35 34 34 33 34 34 36 38 39 40 40 42 43 42 39 37 36 36 35 36 36 38 38 38 38 38 38 38 38 38 37 37 37 38 38
Wind_Direction
214 214 217 219 210 201 197 193 193 201 204 200 197 202 211 212 211 219 224 222 224 228 228 227 227 230 237 241 242 241 234 225 223 226 228 228 228 230 232 235 237 239 242 245 247 249 249 252 255 255 252 250 244 242 248 257 258 254 252 247 240 235 231 224 218 219 226 231 233 233 233 235 237 238 236 230 226 227 230 231 230 229 231 234 234 232 232
214 214 219 223 219 211 203 198 199 204 206 203 199 203 211 212 213 220 223 224 228 231 231 231 230 232 237 242 244 243 237 229 224 229 232 231 230 230 231 233 235 236 240 243 246 248 248 249 252 254 253 252 249 247 251 260 259 253 253 251 245 236 228 222 217 219 226 230 231 231 231 234 237 237 238 238 237 235 235 238 240 238 236 237 239 239 238
220 218 218 220 222 219 210 205 206 209 210 207 202 205 213 214 213 217 221 224 227 229 232 234 234 235 239 243 246 244 239 232 227 231 234 231 230 230 231 233 234 236 238 242 247 249 250 250 251 253 254 253 253 251 252 258 261 257 253 255 254 239 225 221 220 223 228 232 234 234 233 236 239 239 241 242 242 243 240 239 242 245 243 240 238 238 240
223 224 219 215 215 214 213 214 215 214 213 210 205 207 215 218 217 217 221 225 226 228 232 234 236 239 241 242 241 241 239 231 224 227 231 230 229 229 231 234 235 236 237 240 244 248 250 252 252 254 255 255 256 255 254 257 261 262 259 257 257 246 231 225 226 227 230 234 238 240 240 240 240 240 241 240 238 241 242 241 241 245 247 244 238 232 231
218 224 222 215 211 210 213 217 220 218 214 211 210 212 218 222 222 221 223 225 227 229 232 234 237 239 241 242 240 239 238 234 229 229 231 231 231 231 233 235 237 238 239 239 241 244 247 250 251 253 255 256 257 257 256 257 258 260 261 257 255 251 243 236 233 232 232 233 234 236 238 242 242 240 239 239 238 238 240 241 241 242 245 246 243 237 230
216 220 224 219 213 212 213 217 222 222 216 211 212 217 223 225 225 225 225 226 228 230 232 235 238 239 241 243 243 243 243 243 244 241 237 235 237 238 238 239 240 242 242 242 242 243 245 247 249 251 254 256 257 256 256 256 255 255 256 257 255 251 247 243 239 237 237 236 234 233 232 236 239 239 237 235 234 234 236 238 238 239 242 244 245 244 239
218 219 224 225 220 218 219 221 226 228 224 218 215 219 225 226 225 227 228 229 231 232 234 237 239 241 242 243 243 244 245 246 247 246 244 242 242 242 243 243 244 246 247 247 247 246 247 248 249 251 253 255 257 257 256 255 256 255 253 254 256 254 251 248 244 240 239 239 239 238 237 237 238 239 237 233 229 230 235 237 237 240 243 244 244 244 243
215 218 227 231 228 226 225 226 228 231 232 231 227 225 226 224 224 227 229 232 235 237 238 239 240 241 243 243 243 244 245 246 245 245 246 246 245 245 245 245 245 246 247 249 250 250 250 250 251 252 253 255 256 258 258 257 257 257 256 255 256 256 255 253 250 246 243 241 240 239 239 240 240 240 238 234 232 234 238 240 241 242 244 243 243 242 241
210 215 225 230 231 232 230 228 228 231 233 234 234 234 234 231 228 228 230 234 237 239 241 242 241 242 242 242 242 242 244 245 244 243 245 247 249 248 246 246 247 247 247 248 249 250 251 251 252 253 254 255 256 258 259 260 259 259 258 257 256 256 256 255 254 252 251 249 247 243 241 241 241 240 238 237 239 241 242 242 242 243 245 245 242 241 240
210 215 222 227 231 235 234 231 229 231 235 237 238 239 239 238 235 231 231 234 237 238 240 241 243 244 244 242 240 239 239 241 242 242 242 246 250 251 249 248 249 249 248 248 248 250 251 251 252 252 253 254 256 257 258 260 261 261 260 259 257 256 256 256 256 255 255 255 254 253 250 246 244 241 237 237 239 240 240 242 241 241 243 244 243 241 240
208 215 220 223 226 231 236 237 234 233 235 238 239 238 238 240 239 236 233 234 236 237 237 238 242 244 245 245 244 241 239 240 242 244 243 244 246 249 250 250 250 250 250 250 250 250 251 251 251 252 253 254 254 255 256 258 261 262 262 262 261 259 258 258 257 256 255 255 255 255 254 251 250 248 243 240 239 237 237 239 240 241 242 243 244 244 241
207 213 218 219 223 228 235 240 238 233 231 232 233 232 232 237 240 240 237 236 237 239 240 240 241 244 246 248 248 246 243 242 242 243 243 242 243 247 250 251 251 252 252 252 252 251 252 253 253 253 254 254 254 254 254 255 257 259 261 263 263 263 263 262 261 260 257 256 255 256 255 253 252 253 252 250 247 243 240 239 239 241 243 243 243 243 242
212 213 215 218 224 230 235 239 241 238 234 233 231 229 230 235 240 242 240 237 238 241 244 245 245 246 246 247 248 249 248 246 244 243 242 242 243 245 248 250 252 253 253 253 253 252 253 254 255 256 256 255 255 255 254 254 253 255 257 260 261 263 263 263 264 264 263 261 258 257 257 256 253 253 254 254 252 249 245 241 240 242 243 243 242 242 242
223 220 218 220 225 232 236 240 243 244 243 240 238 235 235 238 241 243 243 242 243 245 245 245 246 247 248 249 250 251 251 249 247 245 244 243 243 244 246 249 252 253 253 254 255 255 254 255 255 257 258 257 257 257 257 256 254 253 254 255 257 259 260 261 262 263 264 264 262 260 259 258 256 253 253 253 253 252 249 245 243 243 243 242 242 242 243
231 229 227 227 229 234 238 241 243 244 244 244 244 243 241 239 241 244 245 245 245 245 243 242 243 246 249 251 252 252 252 251 250 248 247 246 246 247 248 249 250 251 252 254 255 255 256 255 256 257 258 258 258 258 258 258 257 255 253 252 253 255 256 258 259 260 262 262 263 262 261 261 259 256 253 252 251 252 253 251 249 247 245 245 245 245 245
237 236 236 236 237 239 242 244 245 246 245 246 247 247 245 242 240 242 245 245 244 243 242 242 243 244 246 248 249 251 252 253 253 252 251 250 250 250 250 250 249 250 251 252 254 255 256 256 256 257 258 258 259 259 259 258 258 257 255 253 253 253 254 255 256 257 259 260 260 260 260 261 261 260 259 256 253 251 252 254 255 256 255 253 252 250 247
243 244 244 243 244 245 246 247 249 250 249 250 251 251 250 247 245 244 245 246 246 245 244 244 243 243 244 245 247 249 251 252 253 253 253 252 251 251 251 250 250 251 252 253 254 255 256 256 257 257 258 258 259 259 259 259 258 258 257 256 254 254 253 253 254 255 257 258 258 259 258 259 260 261 261 261 258 256 254 254 255 257 259 260 259 256 252
244 243 244 245 244 243 242 242 245 248 249 249 248 248 248 248 248 247 247 247 247 246 245 246 246 245 245 246 247 248 249 251 252 253 254 254 253 252 251 251 252 252 253 254 254 255 256 257 257 258 258 258 258 259 259 259 259 259 258 258 257 255 254 254 253 254 255 256 256 257 257 258 258 258 260 261 261 260 259 257 256 256 256 259 261 261 258
247 245 244 244 244 245 244 242 243 244 246 248 249 249 249 249 249 249 249 250 249 248 247 248 249 248 248 249 249 249 250 250 250 251 253 254 253 253 252 252 252 253 254 255 255 255 256 257 258 259 259 259 259 259 259 259 260 260 260 259 258 257 257 256 255 254 254 255 255 255 255 256 255 256 257 258 259 260 260 260 260 259 258 257 258 259 260
248 248 247 246 245 246 248 248 247 245 244 248 251 253 252 249 248 248 249 249 249 248 248 250 251 251 250 250 250 251 251 251 251 251 252 253 253 253 252 252 252 252 253 254 255 256 256 257 257 258 259 260 260 260 259 259 260 260 260 260 260 259 258 258 257 256 256 255 255 256 255 255 254 254 254 255 256 258 259 260 261 261 261 260 259 258 259
249 250 252 251 249 247 247 249 250 250 247 246 248 251 253 253 252 250 249 250 250 248 248 248 250 251 252 252 252 252 252 252 253 253 254 255 255 255 255 253 252 251 251 253 254 256 257 257 257 258 259 260 260 260 260 260 260 260 260 261 261 260 260 259 258 258 258 257 257 257 257 256 254 253 253 253 254 254 256 258 259 261 262 263 262 261 260
254 253 255 256 256 254 252 251 253 255 255 253 250 249 252 255 257 256 254 252 252 252 251 250 249 250 252 253 253 253 252 252 252 253 255 256 257 258 258 257 255 254 253 253 254 255 256 257 257 258 258 258 259 260 260 260 260 260 260 261 261 261 261 261 260 260 259 260 259 259 258 258 257 255 254 253 253 253 253 255 256 258 260 262 263 263 262
257 254 254 255 256 256 255 254 253 254 256 256 255 253 250 251 254 256 256 254 253 253 253 252 250 249 249 250 252 254 254 253 252 252 253 255 256 257 258 258 258 257 255 255 255 255 255 256 257 258 259 259 259 259 260 261 261 260 260 260 261 261 262 262 262 261 261 261 262 262 261 260 260 259 257 255 254 253 253 253 254 255 256 258 260 262 262
259 257 256 255 255 255 256 255 255 254 254 256 257 258 256 254 252 253 254 254 255 255 256 256 255 253 252 250 251 252 254 255 254 254 253 254 255 256 257 258 259 258 258 257 257 256 256 256 257 258 259 260 260 260 261 262 262 262 262 261 260 261 261 261 262 262 262 261 262 262 263 263 262 262 261 260 258 255 253 253 253 254 254 255 256 258 260
259 258 257 255 254 254 255 255 255 255 254 254 255 257 259 259 257 255 254 254 253 254 255 255 256 256 256 255 253 252 252 253 254 255 255 254 254 255 256 258 259 259 259 259 258 258 258 258 257 257 258 259 260 261 262 263 263 264 264 264 263 262 262 262 262 262 262 262 262 262 262 263 263 264 264 263 262 260 257 254 253 253 254 254 255 255 257
259 258 257 256 255 254 253 254 255 255 255 254 255 256 257 259 259 259 258 257 256 255 254 254 255 255 255 256 255 254 253 251 251 252 253 253 253 254 255 256 258 259 259 259 259 260 259 259 259 258 257 257 258 259 260 262 262 263 264 265 265 265 265 264 263 263 263 263 263 262 262 263 263 263 263 263 263 262 261 259 256 254 254 254 254 254 255
260 259 258 257 255 254 253 254 255 255 254 254 253 254 254 256 258 258 259 259 259 258 257 256 256 256 255 255 255 255 255 253 250 249 250 252 253 254 254 255 256 257 258 259 260 260 260 261 260 260 259 258 258 258 258 259 260 261 262 264 264 265 266 266 266 265 265 264 264 264 263 263 262 262 262 262 262 262 262 261 260 259 257 256 255 255 254
260 259 258 256 255 255 255 254 253 252 252 253 253 253 253 254 256 257 258 258 258 258 257 257 257 257 257 256 255 255 255 255 253 252 251 252 253 253 253 254 255 256 257 258 258 259 260 260 260 261 261 260 259 258 258 258 258 259 260 261 263 264 265 266 266 266 266 266 266 265 265 264 264 263 262 261 261 261 261 261 261 260 260 259 257 256 255
260 259 258 257 256 255 255 253 253 252 253 254 254 255 255 255 255 256 257 258 258 258 257 257 257 257 257 257 256 256 256 256 255 254 253 253 253 253 253 253 254 255 255 256 257 257 258 258 259 260 260 260 260 260 260 259 259 259 260 260 262 263 264 265 265 266 267 267 267 266 266 265 265 264 264 263 262 261 260 260 260 260 259 259 259 258 257
261 259 257 256 256 255 254 253 253 253 254 254 254 255 255 255 255 255 255 256 256 257 257 257 256 255 255 255 256 256 256 256 255 255 255 254 254 253 253 253 253 254 255 255 256 256 257 257 258 258 259 260 260 261 261 262 262 261 262 262 263 263 264 264 265 265 266 267 267 267 267 267 267 266 266 265 264 263 262 261 260 259 259 259 259 259 259
261 260 258 256 256 255 255 254 253 253 253 253 253 253 253 254 254 255 255 255 256 256 257 257 256 255 255 256 256 256 256 256 255 254 254 255 255 255 255 254 254 254 255 255 256 257 257 257 258 258 258 259 260 260 261 262 263 263 264 264 265 266 266 266 266 266 266 267 267 268 268 269 269 269 268 267 266 265 264 263 262 261 260 259 258 258 258
263 261 259 257 256 256 256 255 254 253 252 252 252 252 252 253 253 254 255 255 256 256 257 257 257 257 257 257 256 255 255 257 257 255 254 254 254 255 255 255 255 255 255 255 256 257 257 258 258 258 259 259 260 260 261 262 263 264 265 265 266 267 267 267 267 268 268 268 269 269 270 270 270 270 270 269 269 268 267 266 264 263 261 260 259 258 258
262 259 258 257 256 255 254 254 254 253 253 252 252 252 252 252 253 253 253 253 254 254 254 255 256 256 257 257 257 255 255 256 257 256 255 254 254 253 254 254 255 255 256 256 256 257 257 257 257 258 259 260 260 261 262 262 263 263 264 264 265 267 267 268 268 268 269 269 270 270 270 271 271 271 271 271 270 270 269 268 266 265 263 262 261 259 258
261 259 257 257 256 255 254 253 253 253 252 252 252 252 252 252 252 252 252 252 252 252 252 253 253 253 254 255 255 254 253 253 254 255 255 254 254 254 254 254 254 255 256 256 257 257 257 257 257 258 259 260 261 262 263 263 262 262 262 263 264 265 266 267 268 269 270 271 271 270 270 271 271 272 273 273 272 272 271 269 268 266 265 264 262 261 260
259 257 256 256 256 256 255 254 253 253 252 252 252 251 251 250 250 251 250 250 251 251 251 251 251 251 252 254 256 256 253 251 252 254 254 253 253 254 254 254 255 256 256 257 257 258 257 257 258 259 259 260 261 262 262 262 262 261 262 262 263 264 265 267 268 270 271 272 271 271 271 271 272 273 274 274 275 274 273 272 270 268 266 265 263 262 261
265 262 259 259 260 260 259 258 256 255 254 253 252 251 251 249 249 249 249 249 250 250 250 249 249 249 249 251 253 255 253 251 251 252 253 253 253 253 254 254 255 256 257 257 257 257 258 258 258 259 259 260 261 261 261 261 260 260 261 262 263 264 265 267 268 270 271 272 272 272 272 273 273 274 275 276 277 277 276 274 272 269 268 266 264 262 261
274 272 268 266 264 263 262 261 258 256 255 254 253 252 251 250 249 248 248 249 249 250 250 248 246 245 246 247 249 252 253 253 251 251 252 253 253 253 254 255 255 256 257 257 257 257 258 258 258 258 259 260 260 260 259 259 260 261 262 263 264 265 266 267 268 269 270 271 271 272 273 274 275 275 276 277 278 279 278 276 273 270 268 266 264 262 261
277 275 272 270 267 264 261 259 257 256 254 253 252 251 251 251 250 249 248 248 249 249 250 248 246 246 247 248 250 252 254 254 252 251 251 252 253 253 254 254 255 256 257 258 258 259 260 260 260 260 260 260 260 260 260 261 261 262 263 263 264 265 266 267 268 269 269 270 271 273 274 275 276 277 278 279 279 279 277 275 272 270 267 265 263 261 259
278 276 273 271 269 265 262 258 255 253 251 251 250 249 249 250 250 249 248 248 248 249 249 249 248 247 247 249 251 253 254 255 253 252 252 252 252 254 255 256 256 257 257 258 259 260 260 261 261 260 260 259 259 259 260 260 261 261 263 264 265 266 267 268 269 269 270 271 271 273 275 276 277 278 278 278 278 277 275 272 270 268 265 263 261 259 257
282 278 275 273 270 266 262 258 255 251 249 248 248 247 246 248 249 249 248 247 248 248 249 248 248 246 246 247 249 251 253 255 256 255 253 253 254 257 259 258 256 255 255 256 257 257 258 259 259 259 258 258 257 258 258 260 261 263 264 266 268 269 270 270 271 271 271 272 272 274 276 278 279 279 279 277 276 274 272 270 268 265 263 261 259 257 255
285 281 279 277 274 270 265 260 255 252 249 247 245 245 245 246 248 249 248 247 248 249 249 248 247 246 245 245 248 251 253 255 255 254 253 253 253 254 254 252 250 250 252 253 254 255 257 257 258 259 259 259 259 260 261 262 264 266 268 270 272 273 274 274 274 274 274 274 275 277 279 280 280 279 278 276 273 270 269 267 265 263 262 261 259 257 255
288 282 278 277 275 273 270 264 258 253 250 246 244 242 241 242 245 247 247 247 247 247 248 248 246 246 246 248 251 253 252 249 248 248 248 247 247 247 246 246 247 249 250 251 253 254 256 257 259 259 260 261 262 263 264 266 268 270 272 274 275 276 277 278 278 278 278 279 280 281 282 281 279 277 275 272 269 267 266 265 264 263 263 262 260 259 256
293 288 283 280 276 273 270 265 260 254 250 247 244 240 238 237 238 241 243 244 243 244 246 246 245 246 249 251 248 244 243 243 242 241 241 242 243 245 246 247 248 250 251 252 254 255 256 258 260 261 262 263 265 266 268 270 271 273 274 276 277 279 280 282 282 283 283 284 284 283 281 278 275 273 271 269 266 264 263 263 263 263 263 262 261 260 258
294 290 288 285 281 276 269 262 256 252 249 247 246 241 236 232 232 235 239 240 240 240 242 243 243 245 248 245 238 235 240 246 244 240 239 240 242 245 247 248 250 252 253 254 255 257 259 260 263 264 265 266 267 268 269 271 272 274 277 279 281 283 285 286 287 287 286 285 283 280 276 273 270 268 267 266 265 263 262 262 262 261 261 261 260 259 257
296 291 288 286 284 282 273 261 250 245 244 244 242 237 233 231 233 236 238 237 236 235 237 239 239 240 242 241 239 240 245 248 245 242 241 241 243 246 249 249 250 253 255 256 259 262 263 264 265 266 266 266 267 268 270 272 274 277 281 284 286 288 289 290 289 288 286 283 280 276 272 269 266 265 265 265 264 263 262 261 261 261 261 261 260 259 257
305 298 294 291 288 283 273 254 239 235 236 233 225 215 212 216 221 226 229 230 229 230 231 232 233 235 237 239 240 240 241 240 240 241 241 241 242 245 248 250 252 257 261 264 265 265 265 263 263 263 264 266 268 270 272 275 278 282 286 289 291 292 292 292 290 287 284 282 279 276 272 267 264 264 265 265 265 263 262 261 261 261 261 260 260 259 257
324 315 311 310 301 280 251 229 221 220 221 215 203 194 190 194 199 204 211 219 223 225 226 227 230 233 236 236 234 232 232 235 237 239 240 241 243 245 248 252 258 263 266 267 267 264 260 257 257 260 264 267 270 272 275 279 283 288 292 294 295 294 294 293 291 287 284 281 280 277 272 267 264 264 266 267 266 264 263 261 261 261 261 260 259 259 259
344 337 334 338 340 294 199 199 201 198 194 191 188 188 192 198 202 206 215 223 225 224 225 227 230 233 238 241 244 247 251 257 259 256 253 254 255 256 257 260 263 266 266 265 262 258 255 253 254 259 264 268 270 274 278 283 289 293 296 297 296 296 296 296 294 289 284 281 279 275 271 268 265 265 267 268 267 265 264 262 261 261 261 261 260 260 260
358 358 357 9 37 94 143 163 168 165 161 155 155 163 175 186 194 204 216 227 230 229 230 233 235 239 245 252 259 263 266 268 268 264 260 259 259 261 262 262 262 263 263 260 256 253 251 251 254 259 264 268 272 276 281 287 293 296 298 298 298 298 299 301 298 291 285 281 278 274 269 267 266 266 267 268 267 265 264 264 263 262 262 263 263 263 263
15 22 27 38 66 100 122 132 138 145 149 147 145 152 164 171 176 191 212 226 232 233 235 239 243 246 250 255 260 263 265 266 265 264 262 260 260 261 261 261 260 259 257 254 250 248 248 250 254 258 263 267 272 277 281 287 292 295 297 297 298 299 302 305 303 296 287 281 278 274 269 266 265 266 266 266 266 266 266 266 266 265 266 266 266 266 266
34 44 49 62 85 101 109 116 123 131 137 140 142 151 165 173 178 194 217 230 233 233 234 239 243 246 249 252 255 257 259 260 261 263 264 264 263 262 261 260 258 256 253 250 247 246 247 250 254 259 263 266 270 275 279 284 289 293 296 297 298 299 302 306 305 300 290 282 278 275 270 266 265 265 266 266 267 268 269 270 270 270 270 270 269 268 268
39 51 57 71 92 103 106 109 115 118 124 134 147 160 173 184 197 215 233 240 238 231 228 231 237 243 248 253 256 258 260 260 261 263 264 265 265 263 262 259 257 254 252 250 248 249 250 253 256 260 263 267 269 273 277 281 286 290 294 296 297 299 302 305 306 302 293 284 279 275 271 268 266 265 266 267 268 270 271 272 273 273 273 272 271 269 268
Height
5807 5809 5811 5813 5816 5818 5821 5825 5826 5825 5828 5834 5839 5839 5837 5839 5841 5842 5843 5846 5848 5849 5851 5854 5856 5858 5861 5864 5866 5869 5874 5878 5879 5880 5881 5883 5885 5887 5889 5892 5894 5896 5897 5899 5901 5903 5905 5906 5907 5907 5908 5910 5911 5912 5913 5915 5917 5919 5920 5921 5922 5923 5924 5926 5928 5930 5932 5933 5935 5937 5939 5941 5943 5945 5946 5947 5949 5952 5953 5954 5956 5957 5959 5960 5961 5961 5962
5804 5807 5810 5811 5813 5816 5820 5822 5821 5822 5826 5832 5837 5837 5835 5837 5839 5840 5842 5844 5845 5847 5849 5851 5855 5857 5860 5862 5864 5866 5870 5875 5878 5878 5879 5881 5883 5885 5887 5889 5891 5893 5895 5896 5898 5901 5903 5904 5905 5905 5906 5907 5909 5910 5911 5912 5914 5916 5918 5919 5920 5921 5923 5924 5927 5929 5930 5931 5932 5934 5936 5938 5940 5944 5946 5947 5948 5950 5952 5954 5956 5957 5959 5960 5960 5961 5961
5802 5804 5807 5809 5811 5814 5816 5817 5819 5822 5827 5831 5834 5832 5830 5834 5838 5839 5840 5841 5843 5845 5846 5849 5853 5856 5858 5860 5862 5864 5867 5872 5875 5876 5877 5878 5880 5882 5884 5886 5888 5890 5892 5893 5895 5897 5899 5901 5902 5903 5903 5904 5906 5908 5909 5910 5912 5914 5916 5917 5918 5919 5920 5922 5924 5926 5927 5928 5930 5931 5934 5936 5939 5943 5944 5945 5946 5947 5949 5951 5953 5954 5956 5957 5958 5959 5960
5800 5803 5806 5807 5808 5810 5812 5814 5817 5821 5824 5828 5830 5828 5828 5831 5834 5836 5837 5838 5841 5844 5845 5848 5851 5853 5856 5858 5859 5861 5865 5869 5872 5873 5874 5876 5877 5878 5880 5882 5884 5887 5889 5891 5892 5893 5895 5897 5899 5900 5901 5902 5903 5905 5907 5909 5910 5912 5914 5915 5916 5917 5918 5920 5922 5924 5925 5926 5927 5929 5931 5934 5937 5940 5941 5942 5943 5944 5945 5947 5949 5950 5951 5952 5953 5955 5956
5798 5801 5804 5805 5806 5808 5810 5812 5814 5817 5821 5825 5827 5827 5826 5827 5829 5832 5835 5837 5840 5842 5843 5845 5848 5851 5853 5854 5856 5858 5861 5865 5869 5870 5872 5873 5874 5875 5877 5878 5880 5882 5885 5887 5889 5891 5892 5893 5895 5896 5898 5899 5900 5902 5904 5907 5909 5911 5912 5913 5914 5916 5917 5918 5920 5921 5923 5924 5926 5927 5928 5930 5933 5936 5938 5939 5940 5941 5942 5944 5945 5946 5947 5948 5950 5951 5953
5796 5797 5798 5799 5803 5806 5808 5809 5811 5815 5819 5822 5825 5826 5824 5823 5825 5829 5833 5835 5837 5838 5840 5843 5844 5847 5850 5851 5853 5855 5857 5860 5865 5867 5869 5870 5871 5873 5874 5875 5877 5878 5880 5882 5885 5887 5888 5890 5891 5893 5894 5895 5897 5899 5902 5904 5906 5908 5910 5911 5912 5914 5915 5916 5917 5919 5920 5922 5924 5925 5926 5927 5930 5932 5934 5935 5936 5937 5939 5940 5941 5942 5943 5945 5947 5949 5951
5793 5793 5793 5795 5799 5802 5804 5807 5810 5812 5815 5818 5822 5821 5818 5819 5823 5826 5830 5833 5833 5834 5836 5838 5840 5843 5845 5847 5850 5852 5854 5857 5860 5863 5865 5867 5868 5869 5871 5872 5873 5875 5876 5878 5880 5882 5884 5886 5887 5889 5890 5892 5893 5895 5897 5900 5902 5904 5907 5908 5910 5912 5913 5914 5915 5916 5917 5919 5920 5922 5923 5925 5927 5928 5929 5930 5931 5932 5934 5935 5937 5938 5939 5940 5943 5946 5948
5790 5791 5791 5792 5795 5798 5801 5805 5807 5808 5810 5813 5816 5815 5814 5817 5821 5824 5827 5829 5829 5830 5831 5833 5836 5838 5840 5843 5846 5849 5850 5852 5856 5859 5862 5863 5864 5866 5867 5869 5870 5871 5872 5874 5875 5877 5879 5881 5883 5884 5886 5888 5889 5890 5892 5895 5897 5900 5903 5905 5907 5909 5911 5912 5913 5913 5914 5915 5917 5918 5920 5921 5923 5924 5925 5926 5927 5928 5929 5931 5932 5934 5935 5936 5938 5941 5943
5787 5788 5788 5789 5792 5794 5798 5801 5802 5803 5806 5808 5809 5810 5812 5815 5819 5822 5825 5824 5824 5825 5826 5828 5831 5832 5834 5839 5842 5845 5846 5848 5851 5856 5858 5858 5860 5862 5864 5865 5866 5867 5869 5870 5872 5873 5874 5876 5878 5880 5882 5884 5885 5886 5888 5889 5892 5895 5898 5900 5903 5905 5907 5909 5910 5911 5912 5912 5913 5914 5916 5917 5918 5919 5921 5923 5924 5926 5927 5927 5928 5930 5931 5932 5934 5937 5938
5784 5785 5785 5786 5788 5789 5792 5794 5797 5799 5801 5803 5805 5807 5809 5811 5815 5819 5821 5820 5820 5821 5822 5823 5825 5826 5829 5833 5836 5840 5843 5844 5846 5851 5854 5856 5857 5858 5860 5862 5862 5862 5864 5866 5868 5870 5870 5871 5873 5876 5878 5880 5882 5883 5884 5885 5887 5889 5892 5895 5897 5900 5902 5904 5906 5908 5909 5910 5910 5911 5912 5913 5914 5915 5917 5918 5920 5922 5924 5925 5925 5926 5927 5928 5930 5932 5934
5781 5782 5782 5783 5784 5785 5786 5789 5793 5796 5799 5800 5802 5804 5805 5806 5809 5812 5815 5815 5814 5814 5818 5821 5822 5822 5824 5827 5830 5835 5839 5841 5843 5847 5851 5853 5853 5852 5855 5857 5855 5857 5860 5863 5864 5865 5865 5866 5868 5872 5874 5876 5877 5879 5880 5882 5883 5884 5886 5889 5891 5894 5896 5899 5901 5903 5905 5906 5907 5908 5909 5910 5911 5912 5913 5915 5916 5918 5920 5921 5922 5922 5923 5924 5926 5927 5929
5778 5779 5780 5780 5780 5781 5783 5785 5789 5792 5794 5795 5797 5798 5799 5801 5803 5806 5809 5809 5807 5809 5815 5819 5820 5820 5821 5823 5824 5827 5833 5838 5841 5843 5845 5847 5848 5849 5851 5850 5849 5854 5857 5857 5858 5860 5860 5861 5864 5868 5870 5871 5872 5873 5876 5878 5879 5880 5882 5884 5886 5888 5890 5892 5895 5897 5900 5902 5903 5904 5905 5907 5908 5908 5909 5911 5912 5913 5915 5917 5917 5918 5919 5921 5922 5923 5924
5775 5776 5777 5777 5778 5779 5780 5782 5784 5787 5789 5791 5792 5794 5795 5797 5799 5801 5802 5802 5802 5806 5812 5815 5816 5818 5818 5817 5818 5821 5827 5832 5836 5838 5840 5842 5844 5845 5844 5843 5846 5850 5851 5850 5852 5855 5856 5858 5860 5862 5864 5865 5867 5868 5870 5872 5875 5876 5878 5879 5881 5883 5884 5886 5889 5891 5893 5896 5898 5899 5900 5902 5903 5905 5906 5907 5908 5910 5911 5912 5913 5914 5915 5917 5918 5919 5919
5772 5773 5774 5774 5775 5776 5777 5779 5781 5783 5785 5786 5787 5790 5792 5795 5796 5795 5796 5798 5800 5804 5808 5811 5812 5812 5811 5812 5814 5817 5821 5824 5828 5832 5834 5836 5838 5838 5838 5840 5843 5845 5844 5845 5847 5850 5852 5854 5855 5855 5857 5860 5861 5862 5864 5866 5869 5872 5874 5875 5876 5878 5879 5881 5883 5885 5887 5890 5892 5894 5896 5897 5899 5901 5902 5904 5905 5906 5908 5909 5909 5910 5911 5912 5914 5915 5915
5768 5769 5770 5771 5772 5773 5775 5776 5777 5779 5781 5782 5783 5786 5789 5790 5791 5791 5792 5795 5797 5800 5803 5806 5806 5806 5807 5808 5809 5811 5813 5816 5820 5825 5828 5830 5831 5831 5833 5837 5839 5838 5838 5840 5842 5843 5846 5848 5849 5850 5851 5854 5856 5857 5859 5860 5863 5865 5868 5870 5871 5872 5874 5876 5877 5879 5881 5884 5887 5889 5891 5892 5894 5896 5899 5900 5902 5903 5904 5905 5906 5907 5907 5909 5910 5911 5911
5765 5766 5766 5768 5769 5770 5771 5773 5774 5775 5776 5778 5779 5782 5783 5785 5786 5787 5788 5790 5793 5795 5799 5801 5801 5802 5803 5802 5803 5805 5807 5809 5813 5818 5821 5822 5824 5826 5828 5831 5832 5832 5833 5835 5836 5838 5840 5841 5842 5844 5845 5848 5850 5851 5853 5854 5856 5858 5861 5863 5865 5867 5870 5871 5872 5873 5875 5878 5880 5883 5885 5887 5888 5891 5893 5895 5897 5899 5900 5901 5902 5902 5903 5905 5906 5907 5908
5762 5763 5763 5765 5766 5767 5768 5769 5770 5770 5772 5774 5775 5776 5778 5780 5781 5782 5783 5786 5788 5791 5794 5795 5795 5796 5796 5796 5798 5801 5802 5804 5807 5810 5812 5814 5817 5819 5821 5823 5824 5826 5828 5829 5830 5832 5834 5835 5836 5837 5839 5842 5843 5844 5846 5847 5849 5851 5854 5856 5859 5861 5863 5865 5866 5868 5869 5871 5873 5876 5878 5880 5883 5885 5886 5888 5891 5893 5895 5896 5897 5898 5899 5900 5901 5903 5904
5759 5760 5761 5762 5762 5762 5764 5765 5765 5766 5767 5768 5769 5770 5772 5775 5776 5777 5779 5781 5784 5787 5789 5788 5788 5789 5791 5792 5793 5796 5797 5800 5802 5803 5804 5806 5809 5812 5814 5816 5818 5820 5821 5822 5824 5825 5827 5828 5829 5831 5833 5835 5837 5838 5840 5841 5842 5844 5846 5849 5851 5853 5855 5858 5860 5862 5863 5864 5866 5868 5871 5874 5877 5878 5879 5881 5884 5886 5888 5890 5891 5893 5895 5895 5896 5898 5899
5756 5757 5757 5758 5759 5759 5759 5761 5761 5762 5762 5763 5763 5765 5767 5769 5770 5771 5773 5776 5778 5781 5782 5781 5782 5784 5786 5787 5788 5791 5793 5794 5796 5797 5798 5799 5802 5804 5807 5809 5812 5814 5814 5815 5816 5818 5820 5821 5823 5824 5826 5828 5830 5832 5833 5834 5836 5837 5839 5841 5843 5845 5847 5849 5852 5854 5856 5858 5859 5861 5864 5867 5870 5871 5873 5875 5877 5879 5881 5883 5884 5886 5889 5891 5892 5893 5894
5752 5753 5753 5754 5755 5755 5755 5756 5757 5758 5759 5760 5760 5761 5762 5763 5764 5766 5768 5769 5771 5774 5774 5775 5777 5779 5780 5782 5783 5785 5787 5788 5790 5792 5792 5793 5795 5797 5800 5803 5806 5807 5808 5808 5809 5811 5813 5814 5816 5817 5819 5820 5822 5824 5826 5828 5829 5830 5832 5833 5835 5837 5839 5841 5843 5846 5848 5850 5852 5854 5856 5859 5861 5864 5865 5867 5870 5872 5874 5875 5877 5878 5880 5883 5885 5887 5889
5749 5749 5749 5750 5750 5751 5751 5751 5752 5753 5754 5756 5757 5758 5758 5758 5759 5761 5762 5763 5765 5767 5768 5770 5772 5773 5774 5776 5778 5779 5781 5783 5784 5785 5786 5787 5788 5790 5793 5796 5799 5800 5802 5803 5804 5805 5806 5807 5809 5810 5812 5813 5815 5816 5818 5820 5822 5823 5825 5826 5827 5828 5830 5832 5834 5837 5839 5841 5843 5846 5848 5849 5852 5855 5858 5860 5862 5865 5867 5868 5870 5871 5872 5873 5876 5880 5883
5746 5746 5746 5745 5745 5745 5747 5748 5748 5748 5749 5751 5753 5754 5755 5754 5754 5755 5757 5758 5759 5760 5762 5764 5767 5768 5769 5770 5772 5773 5775 5777 5779 5780 5780 5781 5782 5783 5785 5788 5790 5793 5795 5797 5798 5799 5799 5800 5802 5803 5805 5806 5807 5809 5811 5812 5814 5816 5818 5819 5820 5821 5822 5824 5826 5828 5831 5833 5835 5837 5838 5840 5842 5845 5848 5851 5854 5857 5859 5860 5862 5864 5865 5865 5867 5870 5874
5740 5741 5741 5741 5740 5740 5741 5742 5743 5743 5743 5744 5746 5747 5749 5750 5750 5750 5751 5752 5754 5755 5756 5758 5761 5762 5764 5765 5766 5767 5768 5770 5773 5774 5775 5775 5776 5777 5778 5779 5782 5785 5788 5790 5792 5792 5793 5794 5795 5796 5797 5799 5800 5802 5803 5805 5807 5809 5810 5812 5813 5814 5815 5816 5818 5820 5823 5825 5826 5827 5829 5830 5832 5835 5838 5842 5846 5848 5851 5852 5853 5855 5857 5858 5859 5861 5864
5734 5735 5736 5736 5736 5735 5736 5736 5737 5738 5738 5739 5739 5740 5741 5743 5745 5746 5746 5747 5748 5750 5751 5753 5754 5756 5758 5760 5761 5762 5763 5764 5766 5768 5769 5770 5770 5770 5771 5772 5774 5777 5779 5781 5783 5785 5786 5788 5789 5790 5790 5791 5793 5795 5796 5797 5799 5800 5802 5803 5805 5806 5807 5809 5810 5812 5815 5817 5819 5819 5820 5821 5824 5826 5828 5831 5835 5838 5841 5843 5844 5846 5848 5850 5852 5853 5855
5728 5729 5729 5730 5730 5730 5730 5731 5731 5731 5733 5734 5734 5734 5734 5735 5737 5739 5740 5741 5743 5745 5746 5747 5748 5750 5751 5753 5755 5757 5758 5759 5760 5761 5763 5763 5764 5764 5765 5767 5768 5770 5771 5773 5775 5776 5778 5780 5782 5783 5784 5785 5786 5788 5789 5790 5791 5792 5793 5794 5796 5798 5799 5801 5802 5804 5806 5808 5810 5812 5813 5814 5816 5818 5820 5822 5824 5826 5829 5832 5835 5837 5839 5841 5843 5845 5846
5722 5722 5723 5724 5724 5724 5725 5725 5724 5725 5727 5728 5729 5729 5729 5729 5730 5732 5733 5735 5736 5738 5739 5740 5742 5744 5745 5746 5748 5750 5752 5754 5755 5756 5756 5756 5757 5759 5761 5762 5763 5763 5764 5765 5767 5769 5770 5772 5773 5775 5776 5778 5780 5781 5782 5782 5783 5784 5784 5785 5787 5788 5790 5792 5794 5795 5797 5799 5801 5803 5805 5807 5808 5809 5811 5812 5813 5815 5818 5821 5824 5828 5829 5831 5833 5836 5838
5716 5716 5716 5716 5717 5717 5718 5718 5718 5719 5721 5722 5723 5723 5724 5724 5725 5726 5727 5728 5729 5731 5733 5734 5735 5736 5737 5740 5742 5743 5744 5746 5748 5750 5750 5751 5752 5754 5755 5757 5757 5757 5758 5759 5761 5762 5763 5765 5766 5767 5768 5771 5773 5774 5775 5775 5776 5776 5777 5778 5779 5780 5781 5782 5784 5786 5788 5789 5791 5793 5795 5797 5799 5800 5802 5803 5804 5806 5808 5811 5814 5817 5819 5821 5823 5826 5828
5708 5709 5709 5709 5709 5710 5710 5711 5711 5712 5713 5714 5715 5716 5717 5718 5719 5720 5721 5722 5723 5724 5726 5728 5729 5729 5730 5733 5735 5736 5737 5738 5741 5743 5745 5746 5747 5747 5749 5751 5751 5751 5752 5754 5755 5756 5758 5759 5759 5761 5762 5764 5765 5766 5767 5768 5769 5770 5770 5771 5772 5773 5773 5774 5776 5777 5778 5780 5781 5783 5785 5787 5788 5790 5792 5793 5795 5797 5799 5801 5803 5806 5808 5810 5812 5815 5818
5700 5700 5700 5701 5701 5702 5702 5702 5703 5704 5705 5707 5708 5709 5710 5711 5712 5713 5714 5715 5716 5717 5718 5720 5722 5723 5724 5726 5727 5728 5729 5731 5734 5736 5738 5739 5740 5741 5742 5744 5745 5745 5746 5748 5749 5750 5752 5753 5754 5755 5756 5757 5758 5759 5759 5760 5761 5763 5764 5765 5765 5766 5767 5767 5768 5769 5769 5770 5771 5773 5774 5776 5777 5779 5781 5783 5785 5787 5789 5791 5793 5796 5798 5800 5802 5804 5807
5691 5691 5692 5693 5693 5694 5694 5695 5696 5697 5698 5699 5700 5701 5702 5703 5704 5706 5707 5708 5709 5710 5711 5713 5715 5716 5718 5719 5720 5721 5723 5724 5726 5728 5729 5730 5732 5734 5735 5737 5738 5739 5740 5742 5743 5744 5745 5747 5748 5749 5750 5751 5751 5751 5752 5752 5754 5756 5757 5758 5759 5759 5759 5760 5761 5761 5761 5762 5762 5763 5764 5765 5767 5768 5770 5772 5774 5776 5778 5780 5782 5785 5788 5790 5792 5794 5796
5683 5684 5684 5685 5685 5686 5686 5687 5688 5689 5691 5691 5692 5693 5694 5695 5696 5698 5699 5700 5702 5703 5703 5705 5707 5709 5710 5711 5712 5714 5717 5718 5718 5720 5721 5722 5725 5727 5728 5730 5731 5732 5733 5735 5736 5738 5739 5741 5741 5742 5743 5744 5744 5744 5744 5745 5747 5749 5750 5751 5752 5752 5752 5752 5753 5753 5754 5754 5754 5754 5755 5756 5757 5758 5759 5761 5763 5765 5767 5770 5772 5774 5776 5779 5782 5783 5785
5676 5676 5677 5677 5678 5678 5679 5680 5681 5681 5683 5683 5684 5685 5686 5687 5689 5690 5691 5692 5694 5695 5696 5697 5698 5701 5703 5703 5704 5707 5710 5711 5711 5712 5713 5715 5718 5720 5721 5722 5723 5724 5726 5728 5729 5731 5733 5734 5734 5735 5736 5736 5736 5736 5737 5739 5741 5742 5743 5744 5744 5744 5743 5744 5744 5745 5746 5746 5746 5746 5747 5747 5747 5748 5749 5750 5752 5754 5756 5758 5760 5762 5765 5768 5771 5773 5775
5670 5670 5670 5670 5670 5671 5671 5672 5673 5674 5675 5676 5677 5678 5679 5680 5681 5683 5684 5685 5686 5687 5688 5689 5691 5693 5694 5695 5696 5700 5703 5703 5703 5704 5706 5708 5711 5712 5714 5714 5715 5717 5719 5720 5722 5724 5726 5726 5727 5728 5728 5728 5728 5729 5730 5732 5734 5735 5735 5735 5736 5736 5735 5736 5737 5737 5738 5738 5738 5738 5738 5738 5738 5738 5739 5740 5742 5743 5745 5747 5748 5750 5753 5756 5759 5762 5764
5663 5663 5663 5663 5663 5663 5664 5665 5666 5666 5667 5668 5669 5670 5672 5673 5675 5676 5677 5678 5679 5680 5681 5683 5685 5686 5686 5687 5689 5692 5695 5696 5696 5697 5699 5701 5703 5705 5706 5707 5708 5709 5711 5712 5714 5716 5717 5717 5718 5720 5721 5721 5721 5722 5723 5725 5726 5727 5727 5727 5728 5728 5728 5728 5728 5729 5729 5729 5729 5729 5729 5729 5729 5729 5729 5730 5731 5732 5733 5735 5736 5738 5741 5744 5747 5749 5752
5656 5656 5656 5656 5656 5656 5656 5657 5658 5659 5660 5661 5662 5663 5665 5667 5668 5669 5670 5671 5672 5673 5675 5676 5678 5679 5680 5680 5682 5685 5688 5689 5690 5691 5692 5694 5696 5697 5698 5699 5701 5702 5703 5705 5707 5708 5708 5708 5710 5712 5713 5713 5714 5714 5715 5716 5717 5718 5719 5720 5720 5720 5720 5720 5720 5720 5720 5720 5720 5720 5720 5719 5720 5719 5719 5720 5720 5721 5722 5723 5724 5726 5729 5732 5735 5737 5739
5649 5649 5649 5649 5649 5649 5649 5650 5650 5651 5652 5653 5655 5656 5658 5660 5661 5662 5663 5665 5666 5667 5669 5670 5672 5673 5674 5675 5676 5677 5679 5682 5683 5684 5685 5687 5688 5689 5691 5692 5693 5695 5696 5697 5698 5699 5700 5701 5703 5704 5705 5706 5706 5707 5707 5708 5708 5710 5711 5712 5712 5712 5712 5712 5712 5711 5711 5711 5710 5710 5710 5709 5709 5710 5709 5709 5710 5710 5710 5711 5712 5714 5716 5719 5722 5725 5727
5641 5641 5641 5642 5642 5642 5642 5642 5643 5643 5645 5646 5647 5649 5650 5652 5654 5656 5657 5658 5659 5660 5662 5664 5665 5666 5668 5669 5670 5671 5672 5674 5677 5678 5679 5680 5681 5683 5684 5685 5686 5687 5688 5689 5690 5691 5692 5694 5695 5697 5698 5699 5699 5699 5699 5699 5701 5702 5703 5703 5703 5703 5703 5703 5703 5702 5702 5701 5701 5701 5700 5700 5699 5699 5699 5699 5699 5699 5699 5699 5700 5702 5704 5706 5709 5711 5714
5632 5632 5632 5632 5633 5633 5634 5634 5635 5636 5637 5639 5640 5641 5643 5645 5647 5649 5650 5651 5653 5654 5655 5657 5659 5661 5662 5663 5664 5665 5666 5668 5670 5671 5672 5673 5675 5676 5678 5679 5680 5681 5681 5682 5683 5684 5686 5687 5688 5689 5691 5691 5692 5692 5692 5693 5694 5695 5695 5695 5695 5695 5695 5694 5694 5693 5693 5692 5692 5691 5691 5690 5690 5689 5689 5689 5688 5688 5688 5688 5688 5689 5691 5693 5695 5697 5701
5624 5623 5622 5622 5622 5623 5623 5625 5626 5627 5629 5631 5632 5634 5636 5638 5639 5641 5643 5645 5646 5648 5650 5651 5653 5655 5656 5657 5658 5660 5661 5662 5663 5664 5666 5667 5669 5670 5672 5673 5674 5674 5674 5675 5677 5678 5679 5680 5681 5682 5683 5684 5684 5685 5685 5686 5687 5687 5687 5687 5687 5686 5686 5685 5685 5685 5684 5684 5683 5682 5682 5681 5680 5679 5679 5678 5677 5677 5676 5676 5676 5677 5678 5680 5681 5684 5687
5615 5614 5613 5613 5613 5613 5613 5614 5616 5618 5620 5622 5624 5627 5629 5630 5631 5633 5636 5638 5640 5642 5644 5646 5647 5649 5650 5651 5652 5654 5656 5657 5657 5658 5660 5662 5663 5664 5666 5667 5667 5667 5668 5670 5671 5672 5672 5673 5674 5675 5676 5677 5677 5678 5678 5679 5679 5679 5679 5679 5678 5678 5677 5677 5676 5676 5675 5675 5674 5674 5673 5672 5670 5669 5669 5668 5667 5666 5665 5665 5665 5666 5666 5667 5669 5671 5674
5608 5607 5606 5605 5605 5604 5604 5605 5606 5607 5610 5612 5615 5619 5621 5623 5624 5627 5630 5632 5634 5636 5638 5640 5642 5643 5644 5645 5647 5649 5651 5652 5652 5653 5654 5656 5657 5658 5660 5661 5661 5661 5663 5664 5665 5666 5666 5667 5668 5669 5670 5670 5671 5671 5672 5672 5672 5671 5671 5670 5670 5669 5669 5668 5668 5667 5666 5666 5665 5664 5663 5662 5660 5659 5658 5657 5657 5656 5655 5655 5655 5655 5656 5656 5658 5660 5662
5601 5600 5599 5598 5598 5597 5597 5597 5598 5599 5601 5603 5606 5609 5612 5615 5618 5620 5623 5626 5628 5630 5632 5634 5636 5637 5639 5640 5642 5644 5645 5646 5646 5647 5649 5650 5651 5653 5654 5655 5656 5657 5658 5659 5660 5660 5661 5662 5662 5663 5664 5664 5664 5665 5665 5665 5664 5664 5663 5663 5662 5661 5660 5660 5659 5658 5657 5656 5656 5654 5653 5651 5649 5649 5648 5647 5646 5646 5645 5645 5646 5646 5647 5647 5648 5649 5651
5594 5593 5592 5591 5591 5590 5590 5590 5591 5592 5594 5595 5598 5600 5603 5606 5610 5614 5616 5619 5622 5625 5627 5629 5631 5632 5634 5635 5636 5638 5639 5640 5641 5642 5644 5645 5646 5647 5649 5650 5651 5652 5653 5654 5655 5655 5656 5656 5657 5657 5658 5658 5658 5658 5658 5658 5657 5657 5656 5655 5655 5654 5653 5651 5650 5649 5648 5647 5645 5643 5641 5640 5639 5638 5638 5637 5637 5637 5637 5637 5638 5638 5638 5639 5639 5640 5642
5589 5587 5585 5584 5583 5582 5582 5582 5583 5585 5588 5590 5592 5593 5596 5599 5603 5606 5610 5613 5616 5619 5622 5624 5626 5628 5629 5631 5631 5632 5634 5635 5637 5638 5639 5640 5641 5642 5644 5645 5646 5647 5648 5649 5649 5650 5650 5651 5651 5651 5651 5651 5651 5651 5651 5651 5651 5650 5650 5649 5647 5646 5645 5643 5641 5640 5638 5636 5634 5632 5631 5630 5629 5629 5629 5629 5629 5629 5629 5629 5629 5630 5630 5631 5631 5632 5633
5583 5581 5579 5577 5575 5574 5573 5573 5576 5579 5582 5584 5586 5588 5591 5594 5598 5601 5605 5608 5611 5613 5617 5619 5621 5623 5625 5626 5626 5627 5629 5631 5633 5634 5635 5636 5637 5638 5639 5640 5641 5642 5643 5643 5644 5644 5644 5645 5645 5645 5645 5645 5645 5645 5645 5645 5645 5644 5643 5641 5640 5638 5636 5634 5632 5630 5628 5626 5624 5622 5621 5621 5621 5621 5621 5621 5621 5621 5621 5621 5621 5622 5623 5623 5624 5624 5625
5578 5575 5573 5571 5568 5566 5566 5566 5569 5573 5576 5579 5582 5585 5589 5592 5596 5599 5602 5603 5605 5608 5612 5615 5617 5619 5620 5622 5622 5623 5625 5627 5628 5630 5631 5632 5633 5633 5634 5635 5636 5637 5637 5638 5638 5638 5639 5639 5639 5639 5640 5640 5640 5639 5639 5639 5638 5637 5636 5634 5632 5630 5628 5626 5624 5621 5619 5617 5615 5614 5613 5613 5613 5613 5613 5613 5613 5613 5613 5614 5614 5615 5615 5616 5616 5616 5617
5574 5571 5569 5565 5562 5560 5560 5562 5565 5568 5572 5576 5579 5583 5586 5590 5593 5596 5598 5599 5601 5604 5608 5611 5613 5615 5617 5618 5619 5620 5621 5623 5624 5625 5626 5627 5628 5629 5630 5631 5632 5632 5632 5632 5633 5633 5634 5634 5634 5634 5634 5634 5634 5633 5633 5632 5631 5630 5629 5627 5625 5622 5620 5618 5616 5614 5612 5610 5608 5607 5606 5606 5606 5606 5607 5606 5606 5606 5606 5607 5607 5608 5608 5608 5609 5609 5609
5573 5570 5567 5563 5559 5557 5559 5562 5564 5567 5571 5574 5578 5581 5585 5587 5590 5593 5595 5597 5599 5602 5605 5607 5609 5611 5613 5614 5615 5616 5618 5619 5620 5621 5622 5623 5623 5624 5625 5626 5627 5627 5627 5627 5628 5628 5629 5629 5629 5629 5629 5628 5628 5627 5627 5626 5625 5624 5622 5620 5618 5616 5614 5612 5609 5607 5605 5603 5602 5600 5600 5599 5600 5600 5600 5600 5600 5600 5600 5600 5600 5601 5601 5601 5602 5602 5602
5572 5569 5567 5565 5562 5561 5562 5564 5566 5569 5572 5575 5578 5582 5585 5587 5590 5593 5595 5596 5598 5600 5602 5604 5606 5608 5609 5610 5611 5612 5614 5615 5616 5617 5618 5619 5619 5619 5620 5620 5621 5622 5622 5622 5622 5623 5623 5623 5623 5623 5623 5623 5622 5621 5621 5620 5619 5618 5616 5614 5612 5610 5608 5605 5603 5601 5599 5597 5596 5594 5593 5593 5593 5593 5593 5593 5594 5593 5593 5594 5594 5594 5594 5594 5595 5595 5595
5574 5572 5570 5568 5566 5566 5566 5568 5569 5572 5575 5578 5580 5583 5586 5588 5590 5593 5594 5596 5597 5598 5600 5601 5603 5605 5606 5606 5607 5609 5610 5610 5611 5612 5613 5614 5614 5614 5614 5615 5616 5616 5616 5617 5617 5617 5617 5617 5618 5618 5618 5617 5617 5616 5615 5615 5614 5612 5611 5609 5607 5605 5602 5600 5597 5595 5593 5591 5589 5588 5587 5587 5587 5587 5587 5587 5587 5587 5587 5587 5587 5588 5588 5588 5588 5588 5588
5578 5576 5574 5572 5571 5571 5572 5573 5574 5576 5578 5580 5583 5585 5587 5589 5590 5592 5593 5594 5596 5597 5598 5599 5600 5601 5602 5603 5604 5605 5605 5606 5607 5607 5608 5608 5608 5608 5609 5609 5610 5610 5611 5611 5611 5611 5612 5612 5612 5612 5612 5611 5611 5611 5610 5609 5608 5607 5605 5604 5602 5600 5597 5594 5591 5589 5587 5585 5584 5582 5581 5581 5581 5581 5581 5581 5581 5581 5581 5581 5581 5581 5581 5581 5581 5581 5581
5583 5581 5580 5578 5577 5577 5577 5578 5579 5580 5582 5583 5585 5587 5588 5590 5591 5591 5592 5593 5594 5595 5596 5597 5598 5598 5599 5600 5601 5601 5601 5602 5602 5603 5603 5603 5603 5603 5604 5604 5605 5605 5605 5605 5606 5606 5606 5606 5606 5606 5606 5605 5605 5605 5604 5604 5603 5602 5600 5598 5597 5595 5592 5589 5586 5583 5581 5579 5578 5576 5575 5575 5575 5574 5574 5574 5574 5574 5574 5574 5574 5574 5574 5574 5574 5573 5573